Dati Storici

Data ora Umidita' aria (%) Temperatura aria (°C) Rad globale (W/m²) Gonioanemometro (°) Tacoanemometro (m/s) Pioggia (mm)
20-06-2020 04:50 96.8 % 16.369 292.268 0.025 0 0
20-06-2020 04:40 97.6 % 16.258 298.695 0.172 0 0
20-06-2020 04:30 97.6 % 16.229 301.698 0.739 0 0
20-06-2020 04:20 97.6 % 16.193 299.88 1.161 0 0
20-06-2020 04:10 97.7 % 16.204 282.718 0.671 0 0
20-06-2020 04:00 97.7 % 16.126 183.099 0.001 0 0
20-06-2020 03:50 97.7 % 16.056 309.49 0.856 0 0
20-06-2020 03:40 97.7 % 16.07 316.017 -0.004 0 0
20-06-2020 03:30 97.7 % 16.061 305.135 -0.001 0 0
20-06-2020 03:20 97.7 % 16.172 292.07 -0 0 0
20-06-2020 03:10 97.7 % 16.413 281.848 0.263 0 0
20-06-2020 03:00 97.7 % 16.606 348.432 0 0 0
20-06-2020 02:50 97.7 % 16.609 344.705 -0.007 0 0
20-06-2020 02:40 97.7 % 16.566 -0.192 -0.006 0 0
20-06-2020 02:30 97.7 % 16.667 305.241 0.998 0 0
20-06-2020 02:20 97.7 % 16.82 208.039 0.865 0 0
20-06-2020 02:10 97.7 % 16.616 312.886 0.325 0 0
20-06-2020 02:00 97.7 % 16.628 16.517 -0.005 0 0
20-06-2020 01:50 97.7 % 16.706 29.839 9.857 0 0
20-06-2020 01:40 97.7 % 16.783 50.887 0.631 0 0

I dati sono presentati in modo automatico a scopo informativo. In seguito a verifica i dati possono subire modifiche o essere invalidati e non riportati negli archivi definitivi.